{"data":{"norad_id":62688,"epoch":"2026-05-24T18:40:35.168448Z","epoch_age_seconds":94410,"freshness":"FRESH","line1":"1 62688U 25009CH  26144.77818482  .00006624  00000+0  22850-3 0  9995","line2":"2 62688  97.3981 227.9455 0002952  83.3467 276.8109 15.30314710 75394","mean_motion":15.3031471,"eccentricity":0.0002952,"inclination_deg":97.3981,"raan_deg":227.9455,"arg_perigee_deg":83.3467,"mean_anomaly_deg":276.8109,"bstar":0.0002285,"rev_number":7539,"period_min":94.098291716741,"perigee_km":472.84957900051,"apogee_km":476.89559586093,"semimajor_km":6853.0095874307,"source":"CELESTRAK","updated_at":"2026-05-25T13:38:03.169843Z"}}